Flag for France Weather past 2 weeks in Tours, France

36 °F

Dense fog.

Feels Like: 36 °F
Forecast: 39 / 50 °F
Wind: No wind

Location: Tours Airport

Current Time: Nov 27, 2015 at 3:57:31 AM

Latest Report: Nov 27, 2015 at 3:30 AM

Visibility: 1 mi

Pressure: 30.15 "Hg

Humidity: 93%

Dew point: 34 °F

Location of ToursLocation

Historic Weather in Tours — Graph


Tours temperature yesterday

Maximum temperature yesterday: 50 °F (at 12:30 PM)
Minimum temperature yesterday: 43 °F (at 11:30 PM)
Average temperature yesterday: 47 °F

Past Weeks' High & Low Weather Summary

High63 °F (Nov 12, 1:30 PM)100% (Nov 12, 7:30 AM)30.54 "Hg (Nov 12, 7:30 AM)
Low27 °F (Nov 24, 2:30 AM)53% (Nov 22, 3:00 PM)29.65 "Hg (Nov 21, 4:30 AM)
Average50 °F87%30.13 "Hg
* Reported Nov 12 2:00 AM — Nov 27 2:30 AM, Tours, Weather by CustomWeather, © 2015

Note: Actual official high and low records may vary slightly from our data, if they occured in-between our weather recording intervals... More about our weather records


Tours weather history for previous 24 hours

Time TempWeatherWind HumidityBarometerVisibility
2:30 AM
Fri, Nov 27
37 °FFog.No wind100%30.18 "Hg1 mi
2:00 AM39 °FFog.No wind100%30.18 "Hg1 mi
1:30 AM41 °FLight fog.2 mph93%30.18 "Hg1 mi
1:00 AM41 °FClear.1 mph93%30.18 "Hg4 mi
12:30 AM41 °FClear.2 mph100%30.18 "Hg4 mi
11:30 PM
Thu, Nov 26
43 °FClear.No wind100%30.18 "Hg10 mi
11:00 PM45 °FClear.3 mph93%30.18 "Hg10 mi
10:30 PM46 °FClear.1 mph93%30.18 "Hg10 mi
9:30 PM46 °FClear.3 mph93%30.18 "Hg10 mi
9:00 PM46 °FPassing clouds.3 mph93%30.18 "HgN/A
8:30 PM46 °FPassing clouds.2 mph93%30.18 "HgN/A
8:00 PM46 °FPassing clouds.3 mph93%30.18 "HgN/A
7:30 PM46 °FClear.3 mph93%30.18 "Hg10 mi
7:00 PM46 °FClear.2 mph93%30.15 "Hg10 mi
6:30 PM46 °FClear.3 mph93%30.15 "Hg10 mi
6:00 PM46 °FClear.2 mph93%30.15 "Hg10 mi
5:30 PM48 °FClear.2 mph87%30.15 "Hg10 mi
5:00 PM48 °FMostly cloudy.3 mph87%30.12 "HgN/A
4:30 PM48 °FMostly cloudy.5 mph82%30.12 "HgN/A
4:00 PM48 °FMostly cloudy.5 mph82%30.12 "HgN/A
3:30 PM50 °FOvercast.5 mph76%30.12 "HgN/A
3:00 PM50 °FOvercast.6 mph71%30.12 "HgN/A
2:30 PM50 °FMore clouds than sun.5 mph67%30.12 "HgN/A
2:00 PM50 °FPassing clouds.5 mph71%30.12 "HgN/A
1:30 PM50 °FPassing clouds.3 mph71%30.12 "HgN/A
1:00 PM50 °FPassing clouds.5 mph71%30.12 "HgN/A
12:30 PM50 °FPassing clouds.5 mph71%30.12 "HgN/A
12:00 PM48 °FPassing clouds.6 mph76%30.15 "HgN/A
11:30 AM48 °FPassing clouds.5 mph82%30.15 "HgN/A
11:00 AM46 °FSunny.5 mph87%30.15 "Hg10 mi
10:30 AM46 °FSunny.6 mph93%30.12 "Hg10 mi
10:00 AM46 °FOvercast.5 mph93%30.12 "HgN/A
9:30 AM46 °FPassing clouds.3 mph93%30.12 "HgN/A
9:00 AM46 °FSunny.3 mph93%30.09 "Hg10 mi
8:30 AM45 °FMore clouds than sun.2 mph100%30.09 "HgN/A
8:00 AM45 °FOvercast.2 mph93%30.09 "HgN/A
7:30 AM45 °FOvercast.2 mph93%30.07 "HgN/A
7:00 AM45 °FLight rain. Passing clouds.No wind93%30.07 "HgN/A
6:30 AM45 °FLight rain. Partly cloudy.No wind93%30.07 "HgN/A
6:00 AM45 °FLight rain. Passing clouds.1 mph93%30.07 "HgN/A
5:30 AM46 °FLight rain. Passing clouds.No wind87%30.07 "HgN/A
4:30 AM46 °FLight rain. Passing clouds.No wind87%30.04 "HgN/A
4:00 AM46 °FLight rain. Passing clouds.3 mph87%30.07 "HgN/A
3:30 AM46 °FLight rain. Mostly cloudy.3 mph87%30.04 "HgN/A
3:00 AM46 °FMostly cloudy.2 mph93%30.04 "HgN/A
Weather by CustomWeather, © 2015

See weather overviewHow to use our weather pages